User: anonymous   Login
Location: Caltech
(34.1382°N, 118.1253°W)
Time: 15:58:49
(UTC-08:00)
Language:

ADEOS II - Orbit

View from above orbital plane
View from above orbital plane
View from above satellite
View from above satellite

Ground track
Ground track

The orbit data is extracted from the following two-line orbital elements,

1 27597U 02056A   18021.48994338  .00000047  00000-0  36134-4 0  9995
2 27597  98.4014 347.1233 0002058  68.0636 292.0764 14.27331243786567
Epoch (UTC): 21 January 2018 11:45:31
Eccentricity: 0.0002058
inclination: 98.4014°
perigee height: 799 km
apogee height: 802 km
right ascension of ascending node: 347.1233°
argument of perigee: 68.0636°
revolutions per day: 14.27331243
mean anomaly at epoch: 292.0764°
orbit number at epoch: 78656

The dashed part of the orbit path shows where the satellite is in the earth's shadow,  

DLR